�������l�o���
Date,Time,MP-1(��Sv/h),MP-2(��Sv/h),MP-3(��Sv/h),MP-4(��Sv/h),MP-5(��Sv/h),MP-6(��Sv/h),MP-7(��Sv/h),MP-8(��Sv/h),����,����(m/s),���J
2021/01/18,00:00,0.653,0.940,0.599,1.187,0.834,0.373,0.666,0.630,�k�k��,7.6,��
2021/01/18,00:10,0.654,0.939,0.599,1.186,0.836,0.376,0.666,0.630,�k��,6.1,��
2021/01/18,00:20,0.657,0.937,0.600,1.188,0.834,0.376,0.667,0.628,�k��,6.5,��
2021/01/18,00:30,0.655,0.940,0.600,1.186,0.835,0.375,0.666,0.628,�k�k��,7.7,��
2021/01/18,00:40,0.655,0.940,0.599,1.186,0.836,0.374,0.666,0.631,�k�k��,7.7,��
2021/01/18,00:50,0.655,0.937,0.600,1.185,0.833,0.374,0.666,0.630,�k�k��,6.6,��
2021/01/18,01:00,0.655,0.938,0.600,1.187,0.834,0.375,0.667,0.628,�k�k��,6.3,��
2021/01/18,01:10,0.655,0.939,0.598,1.185,0.835,0.374,0.667,0.628,�k�k��,5.7,��
2021/01/18,01:20,0.656,0.938,0.600,1.184,0.831,0.375,0.666,0.629,�k�k��,5.9,��
2021/01/18,01:30,0.655,0.938,0.600,1.185,0.834,0.375,0.667,0.629,�k�k��,5.5,��
2021/01/18,01:40,0.655,0.940,0.601,1.186,0.834,0.375,0.668,0.629,�k,6.0,��
2021/01/18,01:50,0.653,0.938,0.600,1.185,0.834,0.375,0.665,0.630,�k,6.1,��
2021/01/18,02:00,0.654,0.938,0.600,1.186,0.833,0.374,0.667,0.630,�k,6.4,��
2021/01/18,02:10,0.654,0.938,0.601,1.184,0.833,0.375,0.664,0.628,�k,5.9,��
2021/01/18,02:20,0.656,0.938,0.600,1.186,0.834,0.375,0.666,0.629,�k,4.7,��
2021/01/18,02:30,0.654,0.938,0.600,1.185,0.833,0.375,0.665,0.629,�k,6.5,��
2021/01/18,02:40,0.654,0.937,0.600,1.186,0.833,0.374,0.665,0.628,�k,5.0,��
2021/01/18,02:50,0.655,0.936,0.600,1.186,0.834,0.373,0.666,0.628,�k,5.7,��
2021/01/18,03:00,0.655,0.937,0.601,1.185,0.833,0.374,0.665,0.628,�k,5.6,��
2021/01/18,03:10,0.655,0.936,0.601,1.186,0.834,0.375,0.666,0.630,-,CALM,��
2021/01/18,03:20,0.655,0.936,0.601,1.185,0.832,0.374,0.665,0.628,�k,6.4,��
2021/01/18,03:30,0.655,0.938,0.598,1.186,0.834,0.374,0.664,0.629,�k,5.7,��
2021/01/18,03:40,0.654,0.936,0.601,1.185,0.832,0.375,0.666,0.630,�k�k��,6.2,��
2021/01/18,03:50,0.656,0.936,0.600,1.187,0.834,0.374,0.668,0.629,�k�k��,6.6,��
2021/01/18,04:00,0.656,0.936,0.600,1.186,0.833,0.376,0.666,0.629,�k�k��,6.5,��
2021/01/18,04:10,0.655,0.938,0.598,1.187,0.834,0.374,0.667,0.629,�k�k��,7.2,��
2021/01/18,04:20,0.656,0.938,0.600,1.184,0.833,0.375,0.665,0.627,�k�k��,7.4,��
2021/01/18,04:30,0.653,0.936,0.601,1.187,0.831,0.374,0.668,0.628,�k�k��,7.8,��
2021/01/18,04:40,0.653,0.936,0.601,1.186,0.832,0.373,0.666,0.628,�k�k��,6.9,��
2021/01/18,04:50,0.654,0.937,0.600,1.185,0.833,0.372,0.667,0.632,�k�k��,6.7,��
2021/01/18,05:00,0.654,0.936,0.600,1.186,0.833,0.373,0.667,0.630,�k�k��,7.1,��
2021/01/18,05:10,0.654,0.938,0.601,1.185,0.830,0.374,0.666,0.631,�k�k��,6.5,��
2021/01/18,05:20,0.654,0.936,0.600,1.186,0.835,0.375,0.667,0.630,�k�k��,6.3,��
2021/01/18,05:30,0.655,0.937,0.602,1.188,0.832,0.375,0.664,0.630,�k�k��,6.1,��
2021/01/18,05:40,0.655,0.937,0.600,1.183,0.833,0.374,0.665,0.628,�k�k��,6.1,��
2021/01/18,05:50,0.655,0.938,0.602,1.185,0.832,0.375,0.666,0.629,�k�k��,6.7,��
2021/01/18,06:00,0.657,0.938,0.600,1.184,0.832,0.375,0.666,0.630,�k�k��,7.2,��
2021/01/18,06:10,0.656,0.936,0.599,1.184,0.832,0.375,0.666,0.629,�k�k��,7.1,��
2021/01/18,06:20,0.656,0.937,0.598,1.186,0.832,0.375,0.666,0.627,�k�k��,6.3,��
2021/01/18,06:30,0.656,0.935,0.600,1.185,0.832,0.375,0.665,0.629,�k�k��,6.8,��
2021/01/18,06:40,0.655,0.937,0.600,1.184,0.833,0.374,0.666,0.629,�k��,6.6,��
2021/01/18,06:50,0.657,0.936,0.599,1.185,0.832,0.374,0.666,0.628,�k��,5.9,��
2021/01/18,07:00,0.656,0.935,0.597,1.188,0.832,0.375,0.666,0.629,�k��,5.4,��
2021/01/18,07:10,0.655,0.936,0.600,1.185,0.833,0.372,0.667,0.629,�k��,5.1,��
2021/01/18,07:20,0.657,0.935,0.597,1.185,0.830,0.375,0.666,0.629,�k��,5.0,��
2021/01/18,07:30,0.656,0.938,0.598,1.185,0.831,0.373,0.665,0.628,�k��,4.5,��
2021/01/18,07:40,0.656,0.936,0.598,1.186,0.832,0.374,0.665,0.628,�k��,3.9,��
2021/01/18,07:50,0.654,0.936,0.601,1.184,0.833,0.374,0.664,0.629,���k��,3.8,��
2021/01/18,08:00,0.654,0.936,0.599,1.185,0.831,0.373,0.664,0.629,���k��,3.2,��
2021/01/18,08:10,0.656,0.934,0.598,1.185,0.831,0.374,0.666,0.628,���k��,3.1,��
2021/01/18,08:20,0.655,0.936,0.600,1.186,0.831,0.373,0.664,0.630,���k��,2.3,��
2021/01/18,08:30,0.656,0.934,0.600,1.185,0.832,0.374,0.666,0.630,��,2.6,��
2021/01/18,08:40,0.653,0.936,0.599,1.187,0.831,0.374,0.666,0.628,���k��,3.2,��
2021/01/18,08:50,0.655,0.934,0.600,1.187,0.832,0.374,0.665,0.629,���k��,2.8,��
2021/01/18,09:00,0.656,0.933,0.600,1.185,0.830,0.375,0.667,0.630,���k��,3.7,��
2021/01/18,09:10,0.656,0.935,0.600,1.186,0.831,0.375,0.667,0.630,���k��,4.1,��
2021/01/18,09:20,0.659,0.929,0.600,1.184,0.831,0.374,0.667,0.629,�k��,3.2,��
2021/01/18,09:30,0.658,0.931,0.600,1.186,0.830,0.375,0.668,0.631,�k�k��,1.4,��
2021/01/18,09:40,0.656,0.930,0.601,1.187,0.832,0.374,0.667,0.629,�k��,1.7,��
2021/01/18,09:50,0.659,0.933,0.601,1.185,0.832,0.375,0.668,0.629,���k��,1.7,��
2021/01/18,10:00,0.657,0.933,0.601,1.184,0.834,0.375,0.667,0.630,���k��,1.2,��
2021/01/18,10:10,0.658,0.935,0.600,1.186,0.832,0.375,0.668,0.631,���k��,0.6,��
2021/01/18,10:20,0.660,0.936,0.599,1.188,0.832,0.375,0.669,0.630,���쓌,1.5,��
2021/01/18,10:30,0.659,0.935,0.602,1.187,0.833,0.375,0.666,0.630,�쓌,1.5,��
2021/01/18,10:40,0.660,0.938,0.602,1.187,0.832,0.375,0.668,0.630,��쓌,2.5,��
2021/01/18,10:50,0.659,0.935,0.603,1.187,0.834,0.374,0.666,0.629,���쓌,1.5,��
2021/01/18,11:00,0.658,0.938,0.601,1.186,0.834,0.374,0.666,0.630,���쓌,0.8,��
2021/01/18,11:10,0.660,0.937,0.602,1.188,0.831,0.376,0.665,0.629,���쓌,1.5,��
2021/01/18,11:20,0.660,0.939,0.602,1.185,0.835,0.376,0.665,0.629,���쓌,1.7,��
2021/01/18,11:30,0.660,0.938,0.601,1.188,0.836,0.374,0.665,0.629,�쓌,1.2,��
2021/01/18,11:40,0.660,0.939,0.603,1.188,0.835,0.374,0.665,0.631,�쓌,2.6,��
2021/01/18,11:50,0.660,0.939,0.601,1.186,0.836,0.374,0.665,0.630,��쓌,2.3,��
2021/01/18,12:00,0.659,0.942,0.602,1.188,0.837,0.376,0.665,0.629,�쓌,2.8,��
2021/01/18,12:10,0.661,0.941,0.602,1.188,0.837,0.375,0.668,0.630,���쓌,1.4,��
2021/01/18,12:20,0.662,0.942,0.602,1.186,0.836,0.376,0.668,0.630,���쓌,2.0,��
2021/01/18,12:30,0.660,0.944,0.603,1.188,0.837,0.376,0.668,0.631,���쓌,2.0,��
2021/01/18,12:40,0.661,0.943,0.603,1.188,0.838,0.376,0.666,0.631,���쓌,1.5,��
2021/01/18,12:50,0.658,0.942,0.603,1.185,0.836,0.375,0.667,0.631,��,2.0,��
2021/01/18,13:00,0.659,0.942,0.601,1.184,0.836,0.374,0.667,0.631,��,2.0,��
2021/01/18,13:10,0.661,0.941,0.602,1.186,0.836,0.375,0.669,0.631,���쓌,2.8,��
2021/01/18,13:20,0.661,0.941,0.602,1.190,0.838,0.376,0.669,0.632,�쓌,3.6,��
2021/01/18,13:30,0.660,0.941,0.603,1.187,0.837,0.376,0.669,0.632,�쓌,3.6,��
2021/01/18,13:40,0.662,0.939,0.604,1.187,0.836,0.377,0.668,0.631,�쓌,4.1,��
2021/01/18,13:50,0.660,0.943,0.603,1.190,0.840,0.376,0.669,0.629,�쓌,3.7,��
2021/01/18,14:00,0.659,0.942,0.603,1.188,0.836,0.377,0.668,0.630,��쓌,3.9,��
2021/01/18,14:10,0.660,0.942,0.603,1.189,0.838,0.377,0.669,0.628,��쓌,4.4,��
2021/01/18,14:20,0.662,0.943,0.603,1.188,0.837,0.377,0.668,0.628,��쓌,4.1,��
2021/01/18,14:30,0.662,0.943,0.605,1.188,0.838,0.377,0.670,0.629,��쓌,4.3,��
2021/01/18,14:40,0.660,0.944,0.606,1.189,0.838,0.377,0.669,0.629,��쓌,4.1,��
2021/01/18,14:50,0.661,0.944,0.604,1.188,0.840,0.375,0.668,0.630,��쓌,4.2,��
2021/01/18,15:00,0.660,0.944,0.602,1.188,0.839,0.376,0.671,0.630,��쓌,4.0,��
2021/01/18,15:10,0.660,0.942,0.605,1.188,0.837,0.375,0.667,0.631,��쓌,4.2,��
2021/01/18,15:20,0.662,0.943,0.603,1.190,0.838,0.376,0.668,0.631,��쓌,4.4,��
2021/01/18,15:30,0.662,0.944,0.603,1.188,0.839,0.376,0.670,0.629,��쓌,4.8,��
2021/01/18,15:40,0.660,0.944,0.605,1.188,0.838,0.376,0.670,0.630,��,4.2,��
2021/01/18,15:50,0.662,0.944,0.605,1.188,0.839,0.377,0.669,0.631,��쓌,4.5,��
2021/01/18,16:00,0.662,0.944,0.606,1.189,0.840,0.377,0.668,0.630,��쓌,4.2,��
2021/01/18,16:10,0.660,0.943,0.602,1.188,0.838,0.377,0.668,0.632,��쓌,4.8,��
2021/01/18,16:20,0.660,0.946,0.604,1.188,0.840,0.378,0.669,0.631,��쓌,5.0,��
2021/01/18,16:30,0.661,0.947,0.605,1.188,0.838,0.377,0.669,0.631,��,5.8,��
2021/01/18,16:40,0.663,0.946,0.602,1.190,0.840,0.378,0.670,0.630,��,4.9,��
2021/01/18,16:50,0.661,0.946,0.602,1.189,0.839,0.377,0.670,0.631,��,5.7,��
2021/01/18,17:00,0.658,0.945,0.604,1.185,0.840,0.378,0.669,0.631,��,6.0,��
2021/01/18,17:10,0.662,0.946,0.606,1.187,0.838,0.377,0.667,0.630,��,6.7,��
2021/01/18,17:20,0.667,0.944,0.606,1.188,0.838,0.377,0.668,0.630,��쐼,5.9,��
2021/01/18,17:30,0.664,0.943,0.603,1.187,0.837,0.378,0.668,0.632,��쐼,5.7,��
2021/01/18,17:40,0.662,0.944,0.604,1.188,0.837,0.376,0.667,0.632,��쐼,5.5,��
2021/01/18,17:50,0.661,0.945,0.605,1.189,0.838,0.377,0.668,0.630,��쐼,4.7,��
2021/01/18,18:00,0.661,0.946,0.603,1.187,0.837,0.376,0.668,0.630,��쐼,4.4,��
2021/01/18,18:10,0.662,0.945,0.603,1.187,0.838,0.377,0.669,0.632,��쐼,4.5,��
2021/01/18,18:20,0.661,0.944,0.604,1.190,0.840,0.379,0.668,0.630,��쐼,3.5,��
2021/01/18,18:30,0.661,0.942,0.604,1.186,0.838,0.379,0.669,0.631,�쐼,3.1,��
2021/01/18,18:40,0.663,0.945,0.603,1.188,0.837,0.376,0.669,0.631,���쐼,1.9,��
2021/01/18,18:50,0.662,0.945,0.604,1.187,0.839,0.377,0.668,0.631,��,1.9,��
2021/01/18,19:00,0.662,0.944,0.604,1.189,0.839,0.378,0.669,0.631,�k��,2.0,��
2021/01/18,19:10,0.664,0.943,0.603,1.187,0.839,0.378,0.668,0.632,�k�k��,3.8,��
2021/01/18,19:20,0.662,0.944,0.605,1.187,0.837,0.377,0.668,0.631,�k�k��,3.3,��
2021/01/18,19:30,0.664,0.942,0.601,1.189,0.836,0.377,0.667,0.630,�k,2.0,��
2021/01/18,19:40,0.665,0.947,0.604,1.188,0.836,0.377,0.667,0.629,�k��,2.2,��
2021/01/18,19:50,0.662,0.943,0.605,1.190,0.839,0.379,0.669,0.631,���쐼,0.6,��
2021/01/18,20:00,0.665,0.943,0.604,1.189,0.839,0.377,0.668,0.630,�쐼,2.3,��
2021/01/18,20:10,0.663,0.943,0.604,1.187,0.836,0.378,0.668,0.631,��,1.7,��
2021/01/18,20:20,0.663,0.943,0.604,1.189,0.838,0.378,0.669,0.632,�k�k��,1.7,��
2021/01/18,20:30,0.664,0.944,0.603,1.188,0.838,0.377,0.666,0.632,���k��,1.2,��
2021/01/18,20:40,0.662,0.943,0.604,1.187,0.839,0.378,0.669,0.631,��,4.1,��
2021/01/18,20:50,0.663,0.944,0.602,1.188,0.838,0.376,0.668,0.630,��,5.6,��
2021/01/18,21:00,0.664,0.942,0.604,1.189,0.836,0.377,0.669,0.631,��,7.2,��
2021/01/18,21:10,0.662,0.941,0.604,1.188,0.838,0.377,0.667,0.628,��,5.9,��
2021/01/18,21:20,0.663,0.943,0.603,1.191,0.838,0.377,0.668,0.632,���쐼,5.8,��
2021/01/18,21:30,0.660,0.943,0.603,1.189,0.838,0.377,0.668,0.631,���쐼,5.8,��
2021/01/18,21:40,0.663,0.942,0.604,1.187,0.837,0.377,0.669,0.631,��쐼,3.6,��
2021/01/18,21:50,0.664,0.942,0.604,1.187,0.836,0.379,0.669,0.630,��쐼,3.4,��
2021/01/18,22:00,0.665,0.944,0.605,1.190,0.837,0.378,0.669,0.632,���쐼,2.6,��
2021/01/18,22:10,0.662,0.944,0.605,1.188,0.837,0.378,0.670,0.632,���k��,3.6,��
2021/01/18,22:20,0.664,0.942,0.605,1.188,0.837,0.377,0.669,0.631,��,4.1,��
2021/01/18,22:30,0.663,0.941,0.605,1.189,0.838,0.377,0.668,0.631,��,1.1,��
2021/01/18,22:40,0.664,0.944,0.604,1.190,0.838,0.378,0.669,0.632,��,2.2,��
2021/01/18,22:50,0.664,0.942,0.605,1.188,0.836,0.377,0.670,0.630,���k��,2.8,��
2021/01/18,23:00,0.663,0.943,0.605,1.190,0.837,0.378,0.670,0.633,�k�k��,1.5,��
2021/01/18,23:10,0.665,0.943,0.605,1.189,0.836,0.378,0.670,0.633,�k�k��,0.9,��
2021/01/18,23:20,0.663,0.944,0.604,1.187,0.837,0.379,0.669,0.631,��쐼,0.6,��
2021/01/18,23:30,0.664,0.943,0.603,1.188,0.835,0.377,0.669,0.631,-,CALM,��
2021/01/18,23:40,0.662,0.942,0.605,1.188,0.838,0.378,0.668,0.631,-,CALM,��
2021/01/18,23:50,0.663,0.943,0.603,1.187,0.835,0.376,0.669,0.630,��쓌,2.3,��
